Regional Weather Roundup
Issued by NWS

Home | Current Version | Previous Version | Graphics & Text | Print | Product List | Glossary On
Versions: 1 2 3 4 5 6 7 8 9 10 11 12 13 14 15 16 17 18 19 20 21 22 23 24 25 26 27 28 29 30 31 32 33 34 35 36 37 38 39 40 41 42 43 44 45 46 47 48 49 50
000
ASUS43 KLOT 190703
RWRIL

ILLINOIS REGIONAL WEATHER ROUNDUP
NATIONAL WEATHER SERVICE CHICAGO/ROMEOVILLE IL
100 AM CST SUN NOV 19 2017

NOTE: "FAIR" INDICATES FEW OR NO CLOUDS BELOW 12,000 FEET WITH NO
SIGNIFICANT WEATHER AND/OR OBSTRUCTIONS TO VISIBILITY.

* THESE STATIONS ARE NOT UNDER NWS QUALITY CONTROL. THEY ALSO MAY NOT
  REPORT WEATHER SUCH AS PRECIPITATION OR FOG.

ILZ001-002-007-009-015-016-024-190800-
NORTHWEST ILLINOIS

CITY           SKY/WX    TMP DP  RH WIND       PRES   REMARKS
MOLINE         CLEAR     29  19  66 NW20G25   30.00R WCI  16
STERLING*      CLEAR     30  24  78 W12       29.95R WCI  20
SAVANNA*       MOCLDY    30  22  74 NW13G18   29.96R WCI  20
$$

ILZ003-004-008-010-011-017-018-190800-
NORTH CENTRAL ILLINOIS

CITY           SKY/WX    TMP DP  RH WIND       PRES   REMARKS
ROCKFORD       CLOUDY    33  23  66 NW14      29.91S WCI  23
FREEPORT*      PTCLDY    28  22  76 NW7       29.94R WCI  21
ROCHELLE*      CLOUDY    33  27  78 NW15G21   29.91R WCI  22
DE KALB*       CLOUDY    33  26  76 NW13G20   29.89R WCI  24
PERU*          CLOUDY    32  26  79 W13G20    29.93S WCI  22
$$

ILZ005-006-012>014-019>023-190800-
NORTHEAST ILLINOIS

CITY           SKY/WX    TMP DP  RH WIND       PRES   REMARKS
CHICAGO-OHARE  CLOUDY    36  25  64 NW18G24   29.85R WCI  26
CHICAGO-MIDWAY CLOUDY    38  27  64 NW14      29.86R WCI  30
AURORA         CLOUDY    35  28  75 NW14      29.88S WCI  26
LANSING*       CLOUDY    37  30  74 NW12G17   29.86R WCI  30
JOLIET*        CLOUDY    37  30  74 NW7G16    29.89R WCI  32
WAUKEGAN       CLOUDY    35  26  69 NW10      29.84R WCI  27
DUPAGE AIRPORT CLOUDY    35  26  69 NW17G25   29.87R WCI  25
KANKAKEE*      CLOUDY    37  30  78 NW10G17   29.89S WCI  29
WHEELING       CLOUDY    36  26  67 NW16G24   29.86R WCI  26
MORRIS*        CLOUDY    36  31  82 NW9       29.89R WCI  29
ROMEOVILLE*    CLOUDY    36  29  77 NW14G21   29.88R WCI  27
NORTHERLY ISL    N/A     38  28  68 W10         N/A  WCI  31
$$

LMZ740>746-190800-
SOUTHERN LAKE MICHIGAN

STATION/POSITION SKY/WX   TEMP    WIND        PRES    VSBY  WAVE
                          AIR SEA DIR/SP/G                  HT/PER
                          (F)     (DEG/KT/KT) (MB)    (MI)  (FT/S)
SOUTHERN BUOY              39 49  340/ 21/ 27 1008.6          9/ 8
HARRISON CRIB              38     310/ 16/ 17   N/A
BURNHAM HARBOR             38     290/ 11/ 16   N/A
BURNS HARBOR               40     320/ 22     1010.5
MICHIGAN CITY              39     300/ 25/ 27   N/A
$$

ILZ025>027-034>036-040-047-049-050-058-095>099-190800-
WEST-CENTRAL ILLINOIS

CITY           SKY/WX    TMP DP  RH WIND       PRES   REMARKS
QUINCY         CLEAR     31  21  66 NW15G25   30.07S WCI  20
GALESBURG*     CLEAR     28  24  82 W15       30.02R WCI  17
MACOMB*        PTCLDY    29  23  76 NW17G23   30.05S WCI  17
JACKSONVILLE*  CLEAR     32  22  67 NW13G22   30.05R WCI  22
PITTSFIELD*    CLEAR     33  22  63 NW10G18   30.08S WCI  24
$$

ILZ028>032-037-038-041>044-048-051>054-059>061-190800-
CENTRAL ILLINOIS

CITY           SKY/WX    TMP DP  RH WIND       PRES   REMARKS
PONTIAC        CLOUDY    34  32  93 W17       29.93S WCI  23
BLOOMINGTON    CLOUDY    31  27  85 NW14G24   29.96R WCI  21
DECATUR        CLOUDY    33  27  78 NW15      29.99R WCI  23
PEORIA         CLOUDY    32  24  72 NW12G23   29.99S WCI  23
LACON*         CLOUDY    32  26  78 NW13G18   29.96S WCI  23
LINCOLN*       CLOUDY    34  27  76 NW13G20   29.99S WCI  25
SPRINGFIELD    CLOUDY    33  25  72 NW16G31   30.03R WCI  23
TAYLORVILLE    CLOUDY    33  25  75 NW20G28   30.02R WCI  21
$$

ILZ033-039-045-046-055>057-062-063-190800-
EAST-CENTRAL ILLINOIS

CITY           SKY/WX    TMP DP  RH WIND       PRES   REMARKS
CHAMPAIGN      MOCLDY    33  29  85 W17       29.95R WCI  22
DANVILLE*      CLOUDY    34  30  86 W17G23    29.89R WCI  23
RANTOUL*       PTCLDY    34  31  88 W14       29.94R WCI  25
MATTOON        CLOUDY    35  31  85 NW21      29.96R WCI  24
PARIS*         CLOUDY    35  32  89 W15G22    29.96R WCI  25
$$

ILZ079-100>102-190800-
SOUTHWEST ILLINOIS

CITY           SKY/WX    TMP DP  RH WIND       PRES   REMARKS
ALTON          CLEAR     34  25  67 NW14G23   30.07R WCI  25
BELLEVILLE     PTCLDY    37  26  63 NW14G28   30.06R WCI  29
CAHOKIA*       CLEAR     37  22  54 NW22G36   30.08R WCI  26
SPARTA*        CLEAR     37  27  67 NW14G21   30.08R WCI  29
$$

ILZ064>066-069>071-074>076-080>082-084>086-088>090-092>094-190800-
SOUTH-CENTRAL ILLINOIS

CITY           SKY/WX    TMP DP  RH WIND       PRES   REMARKS
CARBONDALE     MOCLDY    40  33  76 NW9       30.05R
CAIRO*         CLEAR     41  32  70 NW7       30.07R
EFFINGHAM*     CLOUDY    36  31  80 W15G28    30.02R WCI  27
MARION         CLOUDY    41  34  74 CALM      30.05S
MT. VERNON     MOCLDY    38  31  76 VRB3      30.03R
CENTRALIA*     CLOUDY    39  32  77 NW10      30.03R WCI  32
SALEM*         MOCLDY    38  31  76 NW8       30.03R WCI  32
METROPOLIS*    CLEAR     40  33  75 W8        30.05R
$$

ILZ067-068-072-073-078-083-087-091-190800-
SOUTHEAST ILLINOIS

CITY           SKY/WX    TMP DP  RH WIND       PRES   REMARKS
LAWRENCEVILLE  CLOUDY    40  33  76 NW22      29.98R
FLORA*         CLOUDY    38  32  77 NW17G23   29.89R WCI  29
FAIRFIELD*     PTCLDY    38  30  74 NW6       30.01R WCI  33
HARRISBURG*    CLEAR     39  32  76 NW13G20   30.03S WCI  32
ROBINSON*      CLOUDY    38  33  83 NW14G21   29.98R WCI  29
CARMI*         PTCLDY    38  33  83 NW8       30.01R WCI  32
$$

ABBREVIATIONS USED IN REMARKS
   TC - TEMPERATURE IN CELSIUS
  WCI - WIND CHILL INDEX
   HX - HEAT INDEX
  VSB - VISIBILITY
$$





USA.gov is the U.S. government's official web portal to all federal, state and local government web resources and services.